Location: Clover
(42.5131°N, 114.6874°W)
Time: 15:26:47
(UTC+00:00)

ARIANE 6 FM1 Upper Stage - Pass Details

Date: 21 January 2026
Orbit: 522 x 608 km, 62.0° (Epoch: 17 February)

Event Time Altitude Azimuth Distance (km) Brightness Sun altitude
Rises 03:08:45 0° 223° (SW) 2,711 6.8 -27.6°
Reaches altitude 10° 03:10:59 10° 225° (SW) 1,807 5.8 -28.0°
Enters shadow 03:13:13 31° 234° (SW) 963 4.2 -28.5°
